Time,TemperatureF,DewpointF,PressureIn,WindDirection,WindDirectionDegrees,WindSpeedMPH,WindSpeedGustMPH,Humidity,HourlyPrecipIn,Conditions,Clouds,dailyrainin,SoftwareType,DateUTC
2013-01-18 05:21:00,32.4,31.9,30.24,NNW,338,0.0,0.0,98,0.04,CLR,,0.12,WeatherDisplay:10.37,2013-01-18 10:21:00,
2013-01-18 05:23:00,32.4,31.9,30.24,NNW,338,0.0,0.0,98,0.04,CLR,,0.12,WeatherDisplay:10.37,2013-01-18 10:23:00,
2013-01-18 05:28:00,32.2,31.7,30.24,NNW,338,0.0,0.0,98,0.04,CLR,,0.12,WeatherDisplay:10.37,2013-01-18 10:28:00,
2013-01-18 05:33:00,32.2,31.7,30.24,NNW,338,0.0,0.0,98,0.04,CLR,,0.12,WeatherDisplay:10.37,2013-01-18 10:33:00,
2013-01-18 05:38:00,32.2,31.7,30.24,NNW,338,0.0,0.0,98,0.04,CLR,,0.12,WeatherDisplay:10.37,2013-01-18 10:38:00,
2013-01-18 05:43:00,31.8,31.3,30.24,NNW,338,0.0,0.0,98,0.04,CLR,,0.12,WeatherDisplay:10.37,2013-01-18 10:43:00,
2013-01-18 05:48:00,31.8,31.3,30.24,NNW,338,0.0,0.0,98,0.04,CLR,,0.12,WeatherDisplay:10.37,2013-01-18 10:48:00,
2013-01-18 05:53:00,31.6,31.1,30.24,NNW,338,0.0,0.0,98,0.04,CLR,,0.12,WeatherDisplay:10.37,2013-01-18 10:53:00,
2013-01-18 05:58:00,31.6,31.1,30.24,NNW,338,0.0,0.0,98,0.04,CLR,,0.12,WeatherDisplay:10.37,2013-01-18 10:58:00,
2013-01-18 06:03:00,31.5,31.0,30.24,NNW,338,0.0,0.0,98,0.00,CLR,,0.12,WeatherDisplay:10.37,2013-01-18 11:03:00,
2013-01-18 06:08:00,31.5,31.0,30.24,NNW,338,0.0,0.0,98,0.00,CLR,,0.12,WeatherDisplay:10.37,2013-01-18 11:08:00,
2013-01-18 06:13:00,31.5,31.0,30.27,NNW,338,0.0,0.0,98,0.00,CLR,,0.12,WeatherDisplay:10.37,2013-01-18 11:13:00,
2013-01-18 06:18:00,31.6,31.1,30.27,NNW,338,0.0,0.0,98,0.00,CLR,,0.12,WeatherDisplay:10.37,2013-01-18 11:18:00,
2013-01-18 06:23:00,31.3,30.8,30.27,NNW,338,0.0,0.0,98,0.00,CLR,,0.12,WeatherDisplay:10.37,2013-01-18 11:23:00,
2013-01-18 06:28:00,31.3,30.8,30.27,NNW,338,0.0,0.0,98,0.00,CLR,,0.12,WeatherDisplay:10.37,2013-01-18 11:28:00,
2013-01-18 06:33:00,31.1,30.6,30.27,NNW,338,0.0,0.0,98,0.00,CLR,,0.12,WeatherDisplay:10.37,2013-01-18 11:33:00,
2013-01-18 06:38:00,31.3,30.8,30.27,NNW,338,0.0,0.0,98,0.00,CLR,,0.12,WeatherDisplay:10.37,2013-01-18 11:38:00,
2013-01-18 06:43:00,31.5,31.0,30.27,NNW,338,0.0,0.0,98,0.00,CLR,,0.12,WeatherDisplay:10.37,2013-01-18 11:43:00,
2013-01-18 06:48:00,31.8,31.3,30.27,NNW,338,0.0,0.0,98,0.00,CLR,,0.12,WeatherDisplay:10.37,2013-01-18 11:48:00,
2013-01-18 06:53:00,32.0,31.5,30.27,NNW,338,0.0,0.0,98,0.00,CLR,,0.12,WeatherDisplay:10.37,2013-01-18 11:53:00,
2013-01-18 06:58:00,31.8,31.3,30.30,NNW,338,0.0,0.0,98,0.00,CLR,,0.12,WeatherDisplay:10.37,2013-01-18 11:58:00,
2013-01-18 07:03:00,31.6,31.1,30.30,NNW,338,0.0,0.0,98,0.00,CLR,,0.12,WeatherDisplay:10.37,2013-01-18 12:03:00,
2013-01-18 07:08:00,31.6,31.1,30.30,NNW,338,0.0,0.0,98,0.00,CLR,,0.12,WeatherDisplay:10.37,2013-01-18 12:08:00,
2013-01-18 07:13:00,31.6,31.1,30.30,NNW,338,0.0,0.0,98,0.00,CLR,,0.12,WeatherDisplay:10.37,2013-01-18 12:13:00,
2013-01-18 07:18:00,31.8,31.3,30.30,NNW,338,0.0,0.0,98,0.00,CLR,,0.12,WeatherDisplay:10.37,2013-01-18 12:18:00,
2013-01-18 07:23:00,31.8,31.3,30.30,NNW,338,0.0,0.0,98,0.00,CLR,,0.12,WeatherDisplay:10.37,2013-01-18 12:23:00,
2013-01-18 07:28:00,31.8,31.3,30.30,NNW,338,0.0,0.0,98,0.00,CLR,,0.12,WeatherDisplay:10.37,2013-01-18 12:28:00,
2013-01-18 07:33:00,31.8,31.3,30.30,NNW,338,0.0,0.0,98,0.00,CLR,,0.12,WeatherDisplay:10.37,2013-01-18 12:33:00,
2013-01-18 07:38:00,31.8,31.3,30.30,NNW,338,0.0,0.0,98,0.00,CLR,,0.12,WeatherDisplay:10.37,2013-01-18 12:38:00,
2013-01-18 07:43:00,32.0,31.5,30.33,NNW,338,0.0,0.0,98,0.00,CLR,,0.12,WeatherDisplay:10.37,2013-01-18 12:43:00,
2013-01-18 07:48:00,32.0,31.5,30.33,NNW,338,0.0,0.0,98,0.00,CLR,,0.12,WeatherDisplay:10.37,2013-01-18 12:48:00,
2013-01-18 07:53:00,32.2,31.7,30.33,NNW,338,0.0,0.0,98,0.00,CLR,,0.12,WeatherDisplay:10.37,2013-01-18 12:53:00,
2013-01-18 07:58:00,32.2,31.7,30.33,NNW,338,0.0,0.0,98,0.00,CLR,,0.12,WeatherDisplay:10.37,2013-01-18 12:58:00,
2013-01-18 08:03:00,32.2,31.7,30.33,NNW,338,0.0,0.0,98,0.00,CLR,,0.12,WeatherDisplay:10.37,2013-01-18 13:03:00,
2013-01-18 08:08:00,32.2,31.7,30.33,NNW,338,0.0,0.0,98,0.00,CLR,,0.12,WeatherDisplay:10.37,2013-01-18 13:08:00,
2013-01-18 08:13:00,32.5,32.0,30.36,NNW,338,0.0,0.0,98,0.00,CLR,,0.12,WeatherDisplay:10.37,2013-01-18 13:13:00,
2013-01-18 08:18:00,32.7,32.2,30.36,NNW,338,0.0,0.0,98,0.00,CLR,,0.12,WeatherDisplay:10.37,2013-01-18 13:18:00,
2013-01-18 08:23:00,32.7,32.2,30.36,NNW,338,0.0,0.0,98,0.00,CLR,,0.12,WeatherDisplay:10.37,2013-01-18 13:23:00,
2013-01-18 08:28:00,32.7,32.2,30.36,NNW,338,0.0,0.0,98,0.00,CLR,,0.12,WeatherDisplay:10.37,2013-01-18 13:28:00,
2013-01-18 08:33:00,32.7,32.2,30.36,NNW,338,0.0,0.0,98,0.00,CLR,,0.12,WeatherDisplay:10.37,2013-01-18 13:33:00,
2013-01-18 08:38:00,32.7,32.2,30.36,NNW,338,0.0,0.0,98,0.00,CLR,,0.12,WeatherDisplay:10.37,2013-01-18 13:38:00,
2013-01-18 08:43:00,33.1,32.6,30.36,NNW,338,0.0,0.0,98,0.00,CLR,,0.12,WeatherDisplay:10.37,2013-01-18 13:43:00,
2013-01-18 08:48:00,33.1,32.6,30.36,NNW,338,0.0,0.0,98,0.00,CLR,,0.12,WeatherDisplay:10.37,2013-01-18 13:48:00,
2013-01-18 08:53:00,33.3,32.8,30.36,NNW,338,0.0,0.0,98,0.00,CLR,,0.12,WeatherDisplay:10.37,2013-01-18 13:53:00,
2013-01-18 08:58:00,33.3,32.8,30.39,NNW,338,0.0,0.0,98,0.00,CLR,,0.12,WeatherDisplay:10.37,2013-01-18 13:58:00,
2013-01-18 09:03:00,33.3,32.8,30.39,NNW,338,0.0,0.0,98,0.00,CLR,,0.12,WeatherDisplay:10.37,2013-01-18 14:03:00,
2013-01-18 09:08:00,33.6,33.1,30.39,NNW,338,0.0,0.0,98,0.00,CLR,,0.12,WeatherDisplay:10.37,2013-01-18 14:08:00,
2013-01-18 09:13:00,33.6,33.1,30.39,NNW,338,0.0,0.0,98,0.00,CLR,,0.12,WeatherDisplay:10.37,2013-01-18 14:13:00,
2013-01-18 09:18:00,33.6,33.1,30.39,NNW,338,0.0,0.0,98,0.00,CLR,,0.12,WeatherDisplay:10.37,2013-01-18 14:18:00,
2013-01-18 09:23:00,34.0,33.5,30.39,NNW,338,0.0,0.0,98,0.00,CLR,,0.12,WeatherDisplay:10.37,2013-01-18 14:23:00,
2013-01-18 09:28:00,34.5,34.0,30.42,NNW,338,0.0,0.0,98,0.00,CLR,,0.12,WeatherDisplay:10.37,2013-01-18 14:28:00,
2013-01-18 09:33:00,35.1,34.6,30.42,NNW,338,0.0,0.0,98,0.00,CLR,,0.12,WeatherDisplay:10.37,2013-01-18 14:33:00,
2013-01-18 09:38:00,35.2,34.7,30.42,NNW,338,0.0,0.0,98,0.00,CLR,,0.12,WeatherDisplay:10.37,2013-01-18 14:38:00,
2013-01-18 09:43:00,35.6,35.1,30.42,NNW,338,0.0,0.0,98,0.00,CLR,,0.12,WeatherDisplay:10.37,2013-01-18 14:43:00,
2013-01-18 09:48:00,36.1,35.6,30.42,NNW,338,0.0,0.0,98,0.00,CLR,,0.12,WeatherDisplay:10.37,2013-01-18 14:48:00,
2013-01-18 09:53:00,36.7,36.2,30.42,NNW,338,0.0,0.0,98,0.00,CLR,,0.12,WeatherDisplay:10.37,2013-01-18 14:53:00,
2013-01-18 09:58:00,36.9,36.3,30.44,NNW,338,0.0,0.0,98,0.00,CLR,,0.12,WeatherDisplay:10.37,2013-01-18 14:58:00,
2013-01-18 10:03:00,37.0,36.3,30.44,West,270,0.0,0.0,97,0.00,CLR,,0.12,WeatherDisplay:10.37,2013-01-18 15:03:00,
2013-01-18 10:08:00,37.2,35.7,30.44,West,270,0.0,0.0,94,0.00,CLR,,0.12,WeatherDisplay:10.37,2013-01-18 15:08:00,
2013-01-18 10:13:00,37.6,35.2,30.44,West,270,0.0,0.0,91,0.00,CLR,,0.12,WeatherDisplay:10.37,2013-01-18 15:13:00,
2013-01-18 10:18:00,37.9,35.0,30.44,West,270,0.0,0.0,89,0.00,CLR,,0.12,WeatherDisplay:10.37,2013-01-18 15:18:00,
2013-01-18 10:23:00,39.0,35.2,30.44,WSW,248,0.0,0.0,86,0.00,CLR,,0.12,WeatherDisplay:10.37,2013-01-18 15:23:00,
2013-01-18 10:28:00,39.6,34.2,30.42,NNW,338,0.0,0.0,81,0.00,CLR,,0.12,WeatherDisplay:10.37,2013-01-18 15:28:00,
2013-01-18 10:33:00,40.3,33.6,30.42,NW,315,0.0,0.0,77,0.00,CLR,,0.12,WeatherDisplay:10.37,2013-01-18 15:33:00,
2013-01-18 10:38:00,40.5,31.4,30.42,NW,315,0.0,0.0,70,0.00,CLR,,0.12,WeatherDisplay:10.37,2013-01-18 15:38:00,
2013-01-18 10:43:00,41.5,31.8,30.42,NNE,22,0.0,0.0,68,0.00,CLR,,0.12,WeatherDisplay:10.37,2013-01-18 15:43:00,
2013-01-18 10:48:00,42.1,30.4,30.42,SW,225,0.0,0.0,63,0.00,CLR,,0.12,WeatherDisplay:10.37,2013-01-18 15:48:00,
2013-01-18 10:53:00,41.7,27.6,30.42,NW,315,0.0,0.0,57,0.04,RA,,0.16,WeatherDisplay:10.37,2013-01-18 15:53:00,
2013-01-18 10:58:00,42.3,25.9,30.42,WNW,292,0.0,0.0,52,0.04,RA,,0.16,WeatherDisplay:10.37,2013-01-18 15:58:00,
2013-01-18 11:03:00,42.3,23.9,30.42,NNW,338,0.0,0.0,48,0.04,,,0.16,WeatherDisplay:10.37,2013-01-18 16:03:00,
2013-01-18 11:08:00,42.8,24.4,30.42,NNE,22,0.0,0.0,48,0.04,CLR,,0.16,WeatherDisplay:10.37,2013-01-18 16:08:00,
2013-01-18 11:13:00,43.5,24.6,30.42,NW,315,0.0,0.0,47,0.08,RA,,0.20,WeatherDisplay:10.37,2013-01-18 16:13:00,
2013-01-18 11:18:00,44.4,24.9,30.42,NNE,22,0.0,0.0,46,0.08,RA,,0.20,WeatherDisplay:10.37,2013-01-18 16:18:00,
2013-01-18 11:23:00,43.3,21.2,30.42,NNW,338,0.0,0.0,41,0.08,,,0.20,WeatherDisplay:10.37,2013-01-18 16:23:00,
2013-01-18 11:28:00,43.0,20.3,30.44,North,0,0.0,0.0,40,0.08,CLR,,0.24,WeatherDisplay:10.37,2013-01-18 16:28:00,
2013-01-18 11:33:00,43.3,21.8,30.44,NNW,338,0.0,0.0,42,0.12,RA,,0.24,WeatherDisplay:10.37,2013-01-18 16:33:00,
2013-01-18 11:38:00,42.8,20.7,30.44,NNW,338,0.0,0.0,41,0.12,RA,,0.24,WeatherDisplay:10.37,2013-01-18 16:38:00,
2013-01-18 11:43:00,42.4,19.8,30.44,North,0,0.0,0.0,40,0.12,CLR,,0.24,WeatherDisplay:10.37,2013-01-18 16:43:00,
2013-01-18 11:48:00,42.1,20.6,30.44,NW,315,0.0,0.0,42,0.12,CLR,,0.24,WeatherDisplay:10.37,2013-01-18 16:48:00,
2013-01-18 11:53:00,42.3,21.9,30.44,North,0,0.0,0.0,44,0.08,CLR,,0.28,WeatherDisplay:10.37,2013-01-18 16:53:00,
2013-01-18 11:58:00,42.3,20.2,30.42,NNW,338,0.0,0.0,41,0.12,RA,,0.28,WeatherDisplay:10.37,2013-01-18 16:58:00,
2013-01-18 12:03:00,42.3,20.8,30.42,East,90,0.0,0.0,42,0.12,RA,,0.28,WeatherDisplay:10.37,2013-01-18 17:03:00,
2013-01-18 12:08:00,42.3,20.2,30.42,ENE,68,0.0,0.0,41,0.12,CLR,,0.28,WeatherDisplay:10.37,2013-01-18 17:08:00,
2013-01-18 12:13:00,42.4,19.2,30.42,NNW,338,0.0,0.0,39,0.08,CLR,,0.28,WeatherDisplay:10.37,2013-01-18 17:13:00,
2013-01-18 12:18:00,43.0,19.7,30.42,North,0,0.0,0.0,39,0.08,CLR,,0.28,WeatherDisplay:10.37,2013-01-18 17:18:00,
2013-01-18 12:23:00,43.2,19.2,30.42,NW,315,0.0,0.0,38,0.08,CLR,,0.28,WeatherDisplay:10.37,2013-01-18 17:23:00,
2013-01-18 12:28:00,43.5,20.2,30.42,North,0,2.3,0.0,39,0.04,CLR,,0.28,WeatherDisplay:10.37,2013-01-18 17:28:00,
2013-01-18 12:33:00,43.9,19.9,30.42,North,0,0.0,0.0,38,0.04,CLR,,0.28,WeatherDisplay:10.37,2013-01-18 17:33:00,
2013-01-18 12:38:00,44.4,21.0,30.42,West,270,2.3,0.0,39,0.08,RA,,0.31,WeatherDisplay:10.37,2013-01-18 17:38:00,
2013-01-18 12:43:00,45.3,21.8,30.42,East,90,0.0,0.0,39,0.08,RA,,0.31,WeatherDisplay:10.37,2013-01-18 17:43:00,
2013-01-18 12:48:00,45.1,21.0,30.42,NNW,338,0.0,0.0,38,0.08,CLR,,0.31,WeatherDisplay:10.37,2013-01-18 17:48:00,
2013-01-18 12:53:00,45.5,20.7,30.42,West,270,0.0,0.0,37,0.04,CLR,,0.31,WeatherDisplay:10.37,2013-01-18 17:53:00,
2013-01-18 12:58:00,45.3,19.9,30.42,South,180,0.0,0.0,36,0.04,CLR,,0.31,WeatherDisplay:10.37,2013-01-18 17:58:00,
2013-01-18 13:03:00,44.8,18.8,30.42,NW,315,0.0,0.0,35,0.04,CLR,,0.31,WeatherDisplay:10.37,2013-01-18 18:03:00,
2013-01-18 13:08:00,44.4,17.8,30.42,West,270,0.0,0.0,34,0.04,CLR,,0.31,WeatherDisplay:10.37,2013-01-18 18:08:00,
2013-01-18 13:13:00,44.4,18.4,30.42,NW,315,0.0,0.0,35,0.04,CLR,,0.31,WeatherDisplay:10.37,2013-01-18 18:13:00,
2013-01-18 13:18:00,44.6,19.3,30.42,NW,315,0.0,0.0,36,0.04,CLR,,0.31,WeatherDisplay:10.37,2013-01-18 18:18:00,
2013-01-18 13:23:00,44.4,21.0,30.42,ENE,68,0.0,0.0,39,0.04,CLR,,0.31,WeatherDisplay:10.37,2013-01-18 18:23:00,
2013-01-18 13:28:00,44.2,20.2,30.42,NNW,338,0.0,0.0,38,0.04,CLR,,0.31,WeatherDisplay:10.37,2013-01-18 18:28:00,
2013-01-18 13:33:00,44.1,20.0,30.42,NNW,338,0.0,0.0,38,0.08,RA,,0.35,WeatherDisplay:10.37,2013-01-18 18:33:00,
2013-01-18 13:38:00,43.9,19.9,30.42,NW,315,0.0,0.0,38,0.04,RA,,0.35,WeatherDisplay:10.37,2013-01-18 18:38:00,
2013-01-18 13:43:00,44.1,20.0,30.42,NW,315,0.0,0.0,38,0.04,CLR,,0.35,WeatherDisplay:10.37,2013-01-18 18:43:00,
2013-01-18 13:48:00,44.1,19.4,30.42,NW,315,0.0,0.0,37,0.04,CLR,,0.35,WeatherDisplay:10.37,2013-01-18 18:48:00,
2013-01-18 13:53:00,43.7,17.1,30.42,West,270,0.0,0.0,34,0.04,CLR,,0.35,WeatherDisplay:10.37,2013-01-18 18:53:00,
2013-01-18 13:58:00,44.1,20.0,30.42,North,0,0.0,0.0,38,0.04,CLR,,0.35,WeatherDisplay:10.37,2013-01-18 18:58:00,
2013-01-18 14:03:00,44.4,17.1,30.42,WNW,292,0.0,0.0,33,0.04,CLR,,0.35,WeatherDisplay:10.37,2013-01-18 19:03:00,
2013-01-18 14:08:00,44.2,16.9,30.42,NNW,338,0.0,0.0,33,0.04,CLR,,0.35,WeatherDisplay:10.37,2013-01-18 19:08:00,
2013-01-18 14:13:00,44.4,15.6,30.42,SW,225,2.3,0.0,31,0.04,CLR,,0.35,WeatherDisplay:10.37,2013-01-18 19:13:00,
2013-01-18 14:18:00,44.2,16.9,30.42,NW,315,0.0,0.0,33,0.04,CLR,,0.35,WeatherDisplay:10.37,2013-01-18 19:18:00,
2013-01-18 14:23:00,45.5,18.7,30.42,NNW,338,0.0,0.0,34,0.04,CLR,,0.35,WeatherDisplay:10.37,2013-01-18 19:23:00,
2013-01-18 14:28:00,45.9,19.0,30.42,NE,45,0.0,0.0,34,0.04,CLR,,0.35,WeatherDisplay:10.37,2013-01-18 19:28:00,
2013-01-18 14:33:00,45.7,17.5,30.42,NNW,338,0.0,0.0,32,0.00,CLR,,0.35,WeatherDisplay:10.37,2013-01-18 19:33:00,
2013-01-18 14:38:00,45.1,16.3,30.42,NW,315,0.0,0.0,31,0.00,CLR,,0.35,WeatherDisplay:10.37,2013-01-18 19:38:00,
2013-01-18 14:43:00,45.3,17.9,30.42,NW,315,0.0,0.0,33,0.00,CLR,,0.35,WeatherDisplay:10.37,2013-01-18 19:43:00,
2013-01-18 14:48:00,44.8,16.7,30.42,North,0,0.0,0.0,32,0.00,CLR,,0.35,WeatherDisplay:10.37,2013-01-18 19:48:00,
2013-01-18 14:53:00,44.4,15.6,30.42,NNW,338,0.0,0.0,31,0.00,CLR,,0.35,WeatherDisplay:10.37,2013-01-18 19:53:00,
2013-01-18 14:58:00,44.2,14.7,30.44,NW,315,0.0,0.0,30,0.00,CLR,,0.35,WeatherDisplay:10.37,2013-01-18 19:58:00,
2013-01-18 15:03:00,44.2,14.7,30.44,NW,315,0.0,0.0,30,0.00,CLR,,0.35,WeatherDisplay:10.37,2013-01-18 20:03:00,
2013-01-18 15:08:00,44.6,15.8,30.44,NNW,338,0.0,0.0,31,0.00,CLR,,0.35,WeatherDisplay:10.37,2013-01-18 20:08:00,
2013-01-18 15:13:00,45.0,16.1,30.44,WNW,292,0.0,0.0,31,0.00,CLR,,0.35,WeatherDisplay:10.37,2013-01-18 20:13:00,
2013-01-18 15:18:00,44.8,15.2,30.44,WNW,292,0.0,0.0,30,0.00,CLR,,0.35,WeatherDisplay:10.37,2013-01-18 20:18:00,
2013-01-18 15:23:00,45.5,15.8,30.44,NE,45,0.0,0.0,30,0.00,CLR,,0.35,WeatherDisplay:10.37,2013-01-18 20:23:00,
2013-01-18 15:28:00,45.1,16.3,30.42,NNE,22,0.0,0.0,31,0.00,CLR,,0.35,WeatherDisplay:10.37,2013-01-18 20:28:00,
2013-01-18 15:33:00,44.6,15.8,30.42,NNW,338,0.0,0.0,31,0.00,CLR,,0.35,WeatherDisplay:10.37,2013-01-18 20:33:00,
2013-01-18 15:38:00,44.6,15.8,30.42,NNW,338,0.0,0.0,31,0.04,RA,,0.39,WeatherDisplay:10.37,2013-01-18 20:38:00,
2013-01-18 15:43:00,44.2,16.2,30.42,NNW,338,0.0,0.0,32,0.04,RA,,0.39,WeatherDisplay:10.37,2013-01-18 20:43:00,
2013-01-18 15:48:00,44.1,17.4,30.42,NNW,338,0.0,0.0,34,0.04,CLR,,0.39,WeatherDisplay:10.37,2013-01-18 20:48:00,
2013-01-18 15:53:00,43.5,17.0,30.42,NNW,338,0.0,0.0,34,0.04,CLR,,0.39,WeatherDisplay:10.37,2013-01-18 20:53:00,
2013-01-18 15:58:00,43.3,16.1,30.44,NNW,338,0.0,0.0,33,0.04,CLR,,0.39,WeatherDisplay:10.37,2013-01-18 20:58:00,
2013-01-18 16:03:00,43.2,18.0,30.44,NW,315,0.0,0.0,36,0.04,CLR,,0.39,WeatherDisplay:10.37,2013-01-18 21:03:00,
2013-01-18 16:08:00,43.0,15.1,30.44,NW,315,0.0,0.0,32,0.04,CLR,,0.39,WeatherDisplay:10.37,2013-01-18 21:08:00,
2013-01-18 16:13:00,43.0,15.8,30.44,NW,315,0.0,0.0,33,0.04,CLR,,0.39,WeatherDisplay:10.37,2013-01-18 21:13:00,
2013-01-18 16:18:00,42.8,17.0,30.44,NNE,22,0.0,0.0,35,0.04,CLR,,0.39,WeatherDisplay:10.37,2013-01-18 21:18:00,
2013-01-18 16:23:00,42.8,18.3,30.44,NNE,22,0.0,0.0,37,0.04,CLR,,0.39,WeatherDisplay:10.37,2013-01-18 21:23:00,
2013-01-18 16:28:00,42.4,18.6,30.44,NNE,22,0.0,0.0,38,0.04,CLR,,0.39,WeatherDisplay:10.37,2013-01-18 21:28:00,
2013-01-18 16:33:00,42.1,18.9,30.44,NW,315,0.0,0.0,39,0.04,CLR,,0.39,WeatherDisplay:10.37,2013-01-18 21:33:00,
2013-01-18 16:38:00,42.1,18.3,30.44,NW,315,0.0,0.0,38,0.00,CLR,,0.39,WeatherDisplay:10.37,2013-01-18 21:38:00,
2013-01-18 16:43:00,41.9,18.1,30.44,NW,315,0.0,0.0,38,0.00,CLR,,0.39,WeatherDisplay:10.37,2013-01-18 21:43:00,
2013-01-18 16:48:00,41.4,18.8,30.44,NW,315,0.0,0.0,40,0.00,CLR,,0.39,WeatherDisplay:10.37,2013-01-18 21:48:00,
2013-01-18 16:53:00,41.2,19.8,30.44,NW,315,0.0,0.0,42,0.00,CLR,,0.39,WeatherDisplay:10.37,2013-01-18 21:53:00,
2013-01-18 16:58:00,41.0,19.6,30.44,NW,315,0.0,0.0,42,0.00,CLR,,0.39,WeatherDisplay:10.37,2013-01-18 21:58:00,
2013-01-18 17:03:00,40.8,19.5,30.44,NW,315,0.0,0.0,42,0.00,CLR,,0.39,WeatherDisplay:10.37,2013-01-18 22:03:00,
2013-01-18 17:08:00,40.6,20.4,30.44,NW,315,0.0,0.0,44,0.00,CLR,,0.39,WeatherDisplay:10.37,2013-01-18 22:08:00,
2013-01-18 17:13:00,40.3,19.5,30.44,NW,315,0.0,0.0,43,0.00,CLR,,0.39,WeatherDisplay:10.37,2013-01-18 22:13:00,
2013-01-18 17:18:00,39.9,22.3,30.44,NW,315,0.0,0.0,49,0.00,CLR,,0.39,WeatherDisplay:10.37,2013-01-18 22:18:00,
2013-01-18 17:23:00,39.6,23.4,30.44,NW,315,0.0,0.0,52,0.00,CLR,,0.39,WeatherDisplay:10.37,2013-01-18 22:23:00,
2013-01-18 17:28:00,38.8,22.2,30.44,NW,315,0.0,0.0,51,0.00,CLR,,0.39,WeatherDisplay:10.37,2013-01-18 22:28:00,
2013-01-18 17:33:00,38.7,22.1,30.44,NW,315,0.0,0.0,51,0.00,CLR,,0.39,WeatherDisplay:10.37,2013-01-18 22:33:00,
2013-01-18 17:38:00,38.1,21.1,30.44,NW,315,0.0,0.0,50,0.00,CLR,,0.39,WeatherDisplay:10.37,2013-01-18 22:38:00,
2013-01-18 17:43:00,37.9,21.4,30.48,NW,315,0.0,0.0,51,0.00,CLR,,0.39,WeatherDisplay:10.37,2013-01-18 22:43:00,
2013-01-18 17:48:00,37.4,21.8,30.48,NW,315,0.0,0.0,53,0.00,CLR,,0.39,WeatherDisplay:10.37,2013-01-18 22:48:00,
2013-01-18 17:53:00,37.2,22.1,30.48,NW,315,0.0,0.0,54,0.00,CLR,,0.39,WeatherDisplay:10.37,2013-01-18 22:53:00,
2013-01-18 17:58:00,36.9,22.6,30.48,NW,315,0.0,0.0,56,0.00,CLR,,0.39,WeatherDisplay:10.37,2013-01-18 22:58:00,
2013-01-18 18:03:00,36.7,22.9,30.48,NW,315,0.0,0.0,57,0.00,CLR,,0.39,WeatherDisplay:10.37,2013-01-18 23:03:00,
2013-01-18 18:08:00,36.3,22.9,30.48,NW,315,0.0,0.0,58,0.00,CLR,,0.39,WeatherDisplay:10.37,2013-01-18 23:08:00,
2013-01-18 18:13:00,36.0,23.4,30.48,NW,315,0.0,0.0,60,0.00,CLR,,0.39,WeatherDisplay:10.37,2013-01-18 23:13:00,
2013-01-18 18:18:00,35.8,23.6,30.48,NW,315,0.0,0.0,61,0.00,CLR,,0.39,WeatherDisplay:10.37,2013-01-18 23:18:00,
2013-01-18 18:23:00,35.4,23.7,30.48,NW,315,0.0,0.0,62,0.00,CLR,,0.39,WeatherDisplay:10.37,2013-01-18 23:23:00,
2013-01-18 18:28:00,35.4,24.4,30.48,NW,315,0.0,0.0,64,0.00,CLR,,0.39,WeatherDisplay:10.37,2013-01-18 23:28:00,
2013-01-18 18:33:00,35.1,24.1,30.48,NW,315,0.0,0.0,64,0.00,CLR,,0.39,WeatherDisplay:10.37,2013-01-18 23:33:00,
2013-01-18 18:38:00,35.1,24.5,30.48,NW,315,0.0,0.0,65,0.00,CLR,,0.39,WeatherDisplay:10.37,2013-01-18 23:38:00,
2013-01-18 18:43:00,34.7,25.2,30.48,NW,315,0.0,0.0,68,0.00,CLR,,0.39,WeatherDisplay:10.37,2013-01-18 23:43:00,
2013-01-18 18:48:00,34.5,25.7,30.48,NW,315,0.0,0.0,70,0.00,CLR,,0.39,WeatherDisplay:10.37,2013-01-18 23:48:00,
2013-01-18 18:53:00,34.2,25.7,30.48,NW,315,0.0,0.0,71,0.00,CLR,,0.39,WeatherDisplay:10.37,2013-01-18 23:53:00,
2013-01-18 18:58:00,34.0,25.9,30.48,NW,315,0.0,0.0,72,0.00,CLR,,0.39,WeatherDisplay:10.37,2013-01-18 23:58:00,
2013-01-18 19:03:00,33.8,26.4,30.48,NW,315,0.0,0.0,74,0.00,CLR,,0.39,WeatherDisplay:10.37,2013-01-19 00:03:00,
2013-01-18 19:08:00,33.6,26.5,30.48,NW,315,0.0,0.0,75,0.00,CLR,,0.39,WeatherDisplay:10.37,2013-01-19 00:08:00,
2013-01-18 19:13:00,33.3,26.5,30.48,NW,315,0.0,0.0,76,0.00,CLR,,0.39,WeatherDisplay:10.37,2013-01-19 00:13:00,
2013-01-18 19:18:00,33.1,26.7,30.48,NW,315,0.0,0.0,77,0.00,CLR,,0.39,WeatherDisplay:10.37,2013-01-19 00:18:00,
2013-01-18 19:23:00,32.9,26.5,30.48,NW,315,0.0,0.0,77,0.00,CLR,,0.39,WeatherDisplay:10.37,2013-01-19 00:23:00,
2013-01-18 19:28:00,32.7,26.3,30.48,NW,315,0.0,0.0,77,0.00,CLR,,0.39,WeatherDisplay:10.37,2013-01-19 00:28:00,
2013-01-18 19:33:00,32.7,26.6,30.48,NW,315,0.0,0.0,78,0.00,CLR,,0.39,WeatherDisplay:10.37,2013-01-19 00:33:00,
2013-01-18 19:38:00,32.4,26.3,30.48,NW,315,0.0,0.0,78,0.00,CLR,,0.39,WeatherDisplay:10.37,2013-01-19 00:38:00,
2013-01-18 19:43:00,32.4,26.6,30.48,NW,315,0.0,0.0,79,0.00,CLR,,0.39,WeatherDisplay:10.37,2013-01-19 00:43:00,
2013-01-18 19:48:00,32.2,26.7,30.48,NW,315,0.0,0.0,80,0.00,CLR,,0.39,WeatherDisplay:10.37,2013-01-19 00:48:00,
2013-01-18 19:53:00,31.8,26.4,30.48,NW,315,0.0,0.0,80,0.00,CLR,,0.39,WeatherDisplay:10.37,2013-01-19 00:53:00,
2013-01-18 19:58:00,31.8,26.7,30.48,NW,315,0.0,0.0,81,0.00,CLR,,0.39,WeatherDisplay:10.37,2013-01-19 00:58:00,
2013-01-18 20:03:00,31.6,26.8,30.48,NW,315,0.0,0.0,82,0.00,CLR,,0.39,WeatherDisplay:10.37,2013-01-19 01:03:00,
2013-01-18 20:08:00,31.3,26.7,30.48,NW,315,0.0,0.0,83,0.00,CLR,,0.39,WeatherDisplay:10.37,2013-01-19 01:08:00,
2013-01-18 20:13:00,31.1,26.5,30.48,NW,315,0.0,0.0,83,0.00,CLR,,0.39,WeatherDisplay:10.37,2013-01-19 01:13:00,
2013-01-18 20:18:00,31.1,26.8,30.48,NW,315,0.0,0.0,84,0.00,CLR,,0.39,WeatherDisplay:10.37,2013-01-19 01:18:00,
2013-01-18 20:23:00,30.9,26.9,30.48,NW,315,0.0,0.0,85,0.00,CLR,,0.39,WeatherDisplay:10.37,2013-01-19 01:23:00,
2013-01-18 20:28:00,30.6,26.6,30.48,NW,315,0.0,0.0,85,0.00,CLR,,0.39,WeatherDisplay:10.37,2013-01-19 01:28:00,
2013-01-18 20:33:00,30.6,26.9,30.48,NW,315,0.0,0.0,86,0.00,CLR,,0.39,WeatherDisplay:10.37,2013-01-19 01:33:00,
2013-01-18 20:38:00,30.4,26.7,30.48,NW,315,0.0,0.0,86,0.00,CLR,,0.39,WeatherDisplay:10.37,2013-01-19 01:38:00,
2013-01-18 20:43:00,30.2,26.8,30.48,NW,315,0.0,0.0,87,0.00,CLR,,0.39,WeatherDisplay:10.37,2013-01-19 01:43:00,
2013-01-18 20:48:00,30.2,26.8,30.48,NW,315,0.0,0.0,87,0.00,CLR,,0.39,WeatherDisplay:10.37,2013-01-19 01:48:00,
2013-01-18 20:53:00,30.0,26.9,30.48,NW,315,0.0,0.0,88,0.00,CLR,,0.39,WeatherDisplay:10.37,2013-01-19 01:53:00,
2013-01-18 20:58:00,29.8,26.7,30.48,NW,315,0.0,0.0,88,0.00,CLR,,0.39,WeatherDisplay:10.37,2013-01-19 01:58:00,
2013-01-18 21:03:00,29.8,26.7,30.48,NW,315,0.0,0.0,88,0.00,CLR,,0.39,WeatherDisplay:10.37,2013-01-19 02:03:00,
2013-01-18 21:08:00,29.7,26.5,30.48,NW,315,0.0,0.0,88,0.00,CLR,,0.39,WeatherDisplay:10.37,2013-01-19 02:08:00,
2013-01-18 21:13:00,29.5,26.6,30.50,NW,315,0.0,0.0,89,0.00,CLR,,0.39,WeatherDisplay:10.37,2013-01-19 02:13:00,
2013-01-18 21:18:00,29.5,26.6,30.50,NW,315,0.0,0.0,89,0.00,CLR,,0.39,WeatherDisplay:10.37,2013-01-19 02:18:00,
2013-01-18 21:23:00,29.5,26.6,30.50,NW,315,0.0,0.0,89,0.00,CLR,,0.39,WeatherDisplay:10.37,2013-01-19 02:23:00,
2013-01-18 21:28:00,29.3,26.5,30.48,NW,315,0.0,0.0,89,0.00,CLR,,0.39,WeatherDisplay:10.37,2013-01-19 02:28:00,
2013-01-18 21:33:00,29.1,26.6,30.48,NW,315,0.0,0.0,90,0.00,CLR,,0.39,WeatherDisplay:10.37,2013-01-19 02:33:00,
2013-01-18 21:38:00,28.9,26.4,30.48,NW,315,0.0,0.0,90,0.00,CLR,,0.39,WeatherDisplay:10.37,2013-01-19 02:38:00,
2013-01-18 21:43:00,28.9,26.4,30.48,NW,315,0.0,0.0,90,0.00,CLR,,0.39,WeatherDisplay:10.37,2013-01-19 02:43:00,
2013-01-18 21:48:00,28.8,26.5,30.48,NW,315,0.0,0.0,91,0.00,CLR,,0.39,WeatherDisplay:10.37,2013-01-19 02:48:00,
2013-01-18 21:53:00,28.6,26.3,30.48,NW,315,0.0,0.0,91,0.00,CLR,,0.39,WeatherDisplay:10.37,2013-01-19 02:53:00,
2013-01-18 21:58:00,28.8,26.7,30.48,NW,315,0.0,0.0,92,0.00,CLR,,0.39,WeatherDisplay:10.37,2013-01-19 02:58:00,
2013-01-18 22:03:00,28.8,26.7,30.48,NW,315,0.0,0.0,92,0.00,CLR,,0.39,WeatherDisplay:10.37,2013-01-19 03:03:00,
2013-01-18 22:08:00,28.6,26.6,30.48,NW,315,0.0,0.0,92,0.00,CLR,,0.39,WeatherDisplay:10.37,2013-01-19 03:08:00,
2013-01-18 22:13:00,28.6,26.8,30.48,NW,315,0.0,0.0,93,0.00,CLR,,0.39,WeatherDisplay:10.37,2013-01-19 03:13:00,
2013-01-18 22:18:00,28.6,26.8,30.48,NW,315,0.0,0.0,93,0.00,CLR,,0.39,WeatherDisplay:10.37,2013-01-19 03:18:00,
2013-01-18 22:23:00,28.4,26.9,30.48,NW,315,0.0,0.0,94,0.00,CLR,,0.39,WeatherDisplay:10.37,2013-01-19 03:23:00,
2013-01-18 22:28:00,28.4,26.9,30.48,NW,315,0.0,0.0,94,0.00,CLR,,0.39,WeatherDisplay:10.37,2013-01-19 03:28:00,
2013-01-18 22:33:00,28.2,26.7,30.48,NW,315,0.0,0.0,94,0.00,CLR,,0.39,WeatherDisplay:10.37,2013-01-19 03:33:00,
2013-01-18 22:38:00,28.0,26.5,30.48,NW,315,0.0,0.0,94,0.00,CLR,,0.39,WeatherDisplay:10.37,2013-01-19 03:38:00,
2013-01-18 22:43:00,28.0,26.8,30.48,NW,315,0.0,0.0,95,0.00,CLR,,0.39,WeatherDisplay:10.37,2013-01-19 03:43:00,
2013-01-18 22:48:00,28.2,27.0,30.48,NW,315,0.0,0.0,95,0.00,CLR,,0.39,WeatherDisplay:10.37,2013-01-19 03:48:00,
2013-01-18 22:53:00,28.2,27.0,30.48,NW,315,0.0,0.0,95,0.00,CLR,,0.39,WeatherDisplay:10.37,2013-01-19 03:53:00,
2013-01-18 22:58:00,28.0,26.8,30.48,NW,315,0.0,0.0,95,0.00,CLR,,0.39,WeatherDisplay:10.37,2013-01-19 03:58:00,
2013-01-18 23:03:00,28.0,27.0,30.48,NW,315,0.0,0.0,96,0.00,CLR,,0.39,WeatherDisplay:10.37,2013-01-19 04:03:00,
2013-01-18 23:08:00,28.0,27.0,30.48,NW,315,0.0,0.0,96,0.00,CLR,,0.39,WeatherDisplay:10.37,2013-01-19 04:08:00,
2013-01-18 23:13:00,27.9,26.9,30.48,NW,315,0.0,0.0,96,0.00,CLR,,0.39,WeatherDisplay:10.37,2013-01-19 04:13:00,
2013-01-18 23:18:00,27.9,26.9,30.48,NW,315,0.0,0.0,96,0.00,CLR,,0.39,WeatherDisplay:10.37,2013-01-19 04:18:00,
2013-01-18 23:23:00,27.9,26.9,30.48,NW,315,0.0,0.0,96,0.00,CLR,,0.39,WeatherDisplay:10.37,2013-01-19 04:23:00,
2013-01-18 23:28:00,27.5,26.5,30.48,NW,315,0.0,0.0,96,0.00,CLR,,0.39,WeatherDisplay:10.37,2013-01-19 04:28:00,
2013-01-18 23:33:00,27.7,26.9,30.48,NW,315,0.0,0.0,97,0.00,CLR,,0.39,WeatherDisplay:10.37,2013-01-19 04:33:00,
2013-01-18 23:38:00,27.7,26.9,30.48,NW,315,0.0,0.0,97,0.00,CLR,,0.39,WeatherDisplay:10.37,2013-01-19 04:38:00,
2013-01-18 23:43:00,27.5,26.8,30.48,NW,315,0.0,0.0,97,0.00,CLR,,0.39,WeatherDisplay:10.37,2013-01-19 04:43:00,
2013-01-18 23:48:00,27.7,26.9,30.48,NW,315,0.0,0.0,97,0.00,CLR,,0.39,WeatherDisplay:10.37,2013-01-19 04:48:00,
2013-01-18 23:53:00,27.3,26.6,30.48,NW,315,0.0,0.0,97,0.00,CLR,,0.39,WeatherDisplay:10.37,2013-01-19 04:53:00,
2013-01-18 23:58:00,27.5,26.8,30.44,NW,315,0.0,0.0,97,0.00,CLR,,0.39,WeatherDisplay:10.37,2013-01-19 04:58:00,